EHI
10 4 0 1 1 1 0 0 0 0 1 4 9 14 15 12 7 5 9 23 41 44 39 46 59 55 35 16 5 1 0 0 0 0 0 0 0 0 0 0 0 0 0 0 0 0 0 0 0
4 2 0 0 0 0 0 0 0 0 1 5 12 16 16 12 10 10 15 29 45 48 42 47 61 60 40 19 7 1 0 0 0 0 0 0 0 0 0 0 0 0 0 0 0 0 0 0 0
0 0 0 0 0 0 0 0 0 1 3 10 19 21 16 11 13 18 27 42 54 54 48 53 64 63 46 24 8 1 0 0 0 0 0 0 0 0 0 0 0 0 0 0 0 0 0 0 0
0 0 0 0 1 0 0 0 1 3 9 20 31 30 19 17 25 35 45 56 63 61 56 59 65 62 47 26 8 1 0 0 0 0 0 0 0 0 0 0 0 0 0 0 0 0 0 0 0
0 0 0 0 0 0 0 0 2 7 18 33 44 39 28 31 47 57 58 63 68 68 62 61 64 59 45 26 8 1 0 0 0 0 0 0 0 0 0 0 0 0 0 0 0 0 0 0 0
0 0 0 0 0 0 0 0 4 12 25 41 51 47 39 46 63 67 61 60 67 69 65 59 56 50 38 24 9 1 0 0 0 0 0 0 0 0 0 0 0 0 0 0 0 0 0 0 0
0 0 0 0 0 0 0 0 4 14 29 45 55 53 48 55 66 69 63 59 62 66 62 53 45 38 30 21 10 2 0 0 0 0 0 0 0 0 0 0 0 0 0 0 0 0 0 0 1
0 0 0 0 0 0 0 1 6 19 35 50 56 54 53 61 72 76 71 64 61 60 55 46 38 32 25 16 8 3 1 0 0 0 0 0 0 0 0 0 0 0 0 0 0 0 0 1 2
0 0 0 0 0 0 0 2 11 28 46 59 61 58 62 73 82 84 78 70 64 56 47 40 35 30 23 15 7 3 1 0 0 0 0 0 0 0 0 0 0 0 0 0 0 0 0 1 2
0 0 0 0 0 0 0 3 14 32 51 64 69 70 75 82 86 87 81 71 61 52 41 34 30 27 23 16 8 3 1 0 0 0 0 0 0 0 0 0 0 0 0 0 0 0 0 1 1
0 0 0 0 0 0 0 2 12 27 44 60 71 78 81 82 83 83 79 68 55 46 37 27 23 23 20 15 9 4 1 0 0 0 0 0 0 0 0 0 0 0 0 0 0 0 0 0 0
0 0 0 0 0 0 0 3 10 21 38 56 70 76 77 76 76 79 77 67 54 44 35 26 19 16 15 14 9 4 1 0 0 0 0 0 0 0 0 0 0 0 0 0 0 0 0 0 0
0 0 0 0 0 0 1 7 17 28 45 63 72 74 71 68 69 72 73 67 57 44 33 26 19 14 13 13 9 3 0 0 0 0 0 0 0 0 0 0 0 0 0 0 0 0 0 0 0
0 0 0 0 0 0 2 9 24 41 57 68 72 71 67 62 62 65 68 67 58 44 32 24 19 16 14 11 7 4 1 0 0 0 0 0 0 0 0 0 0 0 0 0 0 0 0 0 0
0 0 0 0 0 0 1 6 23 45 59 66 69 70 67 61 57 59 63 62 55 43 33 25 20 17 14 9 6 5 3 1 1 1 0 0 0 0 0 0 0 0 0 0 0 0 0 0 0
0 0 0 0 0 0 0 4 19 42 56 61 66 69 67 60 55 55 56 53 46 38 32 27 22 18 15 11 8 7 5 3 4 3 1 0 0 0 0 0 0 0 0 0 0 0 0 0 0
0 0 0 0 0 0 1 4 16 35 49 57 62 64 62 55 47 45 44 40 33 27 25 25 24 22 19 14 10 8 6 6 7 5 3 1 0 0 0 0 0 0 0 0 0 0 0 0 0
0 0 0 0 0 1 2 5 13 26 40 49 55 57 55 48 38 33 31 28 24 19 19 22 24 24 21 16 11 8 7 7 7 5 2 1 0 0 0 0 0 0 0 0 0 0 0 0 0
0 0 0 0 0 1 3 6 10 19 30 39 44 48 47 42 34 28 25 23 20 18 19 22 23 21 19 16 10 7 6 5 4 2 1 0 0 0 0 0 0 0 0 0 0 0 0 0 0
0 0 0 0 0 1 3 5 8 12 20 27 33 39 42 40 34 28 24 22 21 20 19 20 19 16 13 11 8 4 3 2 1 0 0 0 0 0 0 0 0 0 0 0 0 0 0 0 0
0 0 0 0 0 0 1 2 4 8 14 19 24 32 38 38 32 27 24 22 20 19 18 17 14 11 10 9 7 4 2 1 0 0 0 0 0 0 0 0 0 0 0 0 0 0 0 0 0
0 0 0 0 0 0 0 0 1 4 8 11 17 25 32 34 31 26 22 19 17 16 16 15 13 10 10 10 11 8 4 1 1 0 0 0 0 0 0 0 0 0 0 0 0 0 0 0 0
0 0 0 0 0 0 0 0 0 2 3 5 11 19 26 30 27 23 19 17 15 15 16 15 13 11 11 11 12 9 4 1 1 1 0 0 0 0 0 0 0 0 0 0 0 0 0 0 0
0 0 0 0 0 0 0 0 0 0 0 1 7 16 24 26 23 19 16 14 13 14 15 14 12 10 11 12 11 7 2 1 1 1 0 0 0 0 0 0 0 0 0 0 0 0 0 0 0
0 0 0 0 0 0 0 0 0 0 0 0 5 14 22 23 21 18 15 14 13 14 14 14 11 11 12 12 10 6 3 2 1 0 0 0 0 0 0 0 0 0 0 0 0 0 0 0 0
0 0 0 0 0 0 0 0 0 0 0 0 4 11 17 19 20 19 17 16 15 16 16 16 14 12 13 12 9 6 3 3 2 1 0 0 0 0 0 0 0 0 0 0 0 0 0 0 0
0 0 0 0 0 0 0 0 0 0 0 1 4 8 9 13 17 19 19 18 17 17 18 18 17 15 13 12 8 5 3 3 3 1 0 0 0 0 0 0 0 0 0 0 0 0 0 0 0
0 0 0 0 0 0 0 0 0 0 0 1 3 4 4 7 14 19 21 21 19 17 18 19 19 17 14 10 6 4 3 3 3 2 0 0 0 0 0 0 0 0 0 0 0 0 0 0 0
0 0 0 0 0 0 0 0 0 0 1 2 2 2 2 4 10 16 21 22 20 19 19 20 20 18 14 8 4 3 2 2 2 1 0 0 0 0 0 0 0 0 0 0 0 0 0 0 0
0 0 0 0 0 0 0 0 0 0 1 3 3 2 1 2 6 12 18 21 21 21 21 21 21 20 14 8 3 1 1 1 1 0 0 0 0 0 0 0 0 0 0 0 0 0 0 0 0
Wind_Speed
5 4 2 1 3 3 3 4 4 3 2 2 7 10 9 5 4 4 5 15 18 16 14 17 19 19 19 18 17 17 16 16 15 15 15 15 14 14 14 14 13 13 12 12 12 11 11 11 11
3 4 1 2 3 1 5 5 4 3 5 6 9 9 9 6 7 9 9 16 19 16 12 15 20 20 20 19 17 17 16 16 15 15 14 14 14 14 14 13 13 12 12 11 11 11 10 10 10
3 3 2 2 1 4 5 4 6 4 5 6 6 5 6 7 8 7 11 19 17 14 12 16 21 20 20 19 17 17 16 16 15 15 14 14 14 13 13 13 12 12 11 11 10 10 9 9 9
1 2 2 1 6 9 7 6 5 5 5 6 9 6 4 4 6 12 19 20 18 13 12 16 21 20 20 19 18 17 16 15 15 15 14 14 13 13 13 12 12 11 11 10 9 9 8 8 7
2 3 2 3 7 7 5 7 7 5 5 8 11 7 3 4 15 20 19 19 18 13 11 14 21 20 20 19 18 17 16 15 15 15 14 13 13 13 12 12 11 11 10 9 8 7 6 6 6
2 3 1 4 6 6 3 5 7 8 9 9 10 8 3 7 18 18 18 16 17 15 12 13 20 20 19 19 18 17 16 15 15 14 14 13 12 12 12 11 11 10 9 8 7 6 5 4 4
3 1 3 5 7 5 2 4 7 9 9 8 10 8 4 7 15 17 16 15 14 14 12 10 11 15 18 18 18 17 16 15 14 14 13 13 12 12 11 10 10 9 8 7 6 5 3 2 2
5 1 4 4 4 3 1 3 6 9 7 9 10 11 8 11 15 16 15 14 14 12 12 10 9 9 9 11 17 17 16 15 14 14 13 12 12 11 10 9 8 8 7 6 5 3 2 0 2
2 1 5 5 3 3 1 3 2 5 8 5 5 7 11 18 19 18 15 12 12 12 10 10 10 8 8 8 13 14 15 14 13 11 13 10 5 4 5 7 8 8 7 5 4 2 1 1 3
4 4 9 7 4 2 2 2 4 5 6 4 5 6 14 18 20 20 20 18 16 14 11 10 11 10 9 9 7 5 6 6 5 4 5 4 3 3 5 6 8 7 6 4 3 2 1 1 1
5 8 9 8 6 2 2 1 3 7 3 7 12 14 17 18 18 19 18 18 17 16 13 11 11 10 9 6 6 3 3 3 4 5 5 3 3 2 2 2 2 2 2 1 0 0 0 0 0
6 10 10 8 5 2 1 1 2 4 7 10 15 17 16 16 15 16 17 16 15 14 13 11 10 9 7 7 6 5 3 3 3 4 5 4 3 3 2 2 1 1 1 1 1 1 0 0 0
6 8 8 7 5 3 1 1 3 2 6 12 15 15 14 14 12 11 12 13 13 13 12 11 10 8 8 8 6 6 5 4 4 4 4 5 4 4 3 2 2 2 1 1 1 1 1 1 1
6 7 8 7 5 3 1 1 4 4 10 14 15 14 12 12 11 10 12 12 12 12 12 11 11 10 9 7 6 6 5 4 4 4 5 5 4 4 3 3 2 2 1 2 2 2 2 1 1
5 8 10 7 4 2 2 2 3 8 11 12 12 12 11 9 10 11 12 11 12 12 11 10 11 10 9 8 8 6 5 5 4 4 5 5 5 5 4 3 2 1 2 3 3 3 2 2 2
6 5 6 10 3 3 4 5 4 9 13 11 11 11 9 7 9 10 11 9 10 10 11 11 11 9 8 7 7 5 5 5 4 4 4 5 5 6 4 3 2 2 3 3 3 2 3 2 2
4 4 7 10 3 2 4 5 3 7 11 11 10 10 9 7 7 10 12 11 11 11 11 11 10 10 8 7 6 6 5 5 5 4 4 4 5 5 4 3 2 3 3 2 2 2 2 2 1
7 6 7 7 3 2 2 2 2 5 8 9 9 9 9 9 8 9 10 10 10 10 11 11 10 9 8 6 5 5 5 4 4 4 4 5 4 5 5 3 3 4 3 3 2 2 2 1 1
10 11 10 8 3 2 2 2 3 4 6 8 8 9 10 9 7 7 8 9 9 10 10 10 10 9 8 6 6 6 5 4 4 4 5 5 5 5 5 4 3 3 3 2 2 2 3 2 1
12 11 8 5 3 3 3 2 0 2 4 7 10 10 10 8 7 8 8 9 9 10 11 10 10 10 8 6 5 4 5 4 3 3 4 5 5 5 5 5 3 3 3 3 3 3 2 2 2
11 7 5 3 2 5 4 4 3 2 1 2 6 9 10 12 13 11 9 9 10 11 12 11 10 9 8 7 6 5 4 3 2 3 3 4 5 5 5 5 4 4 3 3 2 3 3 2 2
9 7 4 1 3 3 3 1 5 3 2 2 4 6 9 10 11 11 11 10 10 10 10 10 10 10 9 8 8 9 7 5 5 4 3 4 4 5 5 5 5 4 3 3 2 3 3 3 1
7 5 1 2 4 4 5 2 6 3 4 4 4 6 8 10 12 13 12 12 10 9 9 9 9 9 8 8 9 8 6 4 4 4 5 4 3 5 5 5 5 4 3 4 3 3 3 2 2
5 1 5 6 6 4 2 1 7 4 5 4 3 5 8 10 10 10 9 8 8 8 8 9 10 9 9 9 8 8 8 7 7 6 5 4 2 3 4 5 5 5 4 4 3 3 4 3 3
3 3 4 6 5 2 2 1 9 8 6 6 7 7 8 10 10 9 9 9 9 10 10 10 11 9 9 9 8 8 9 9 9 7 7 5 3 3 4 5 4 4 4 4 4 3 3 3 3
6 7 7 5 4 3 2 4 9 9 6 5 5 7 9 10 10 12 12 11 10 11 11 11 11 10 10 9 8 8 8 6 6 7 6 6 5 5 6 6 6 5 5 5 4 3 3 3 3
5 4 8 7 2 2 3 5 8 6 4 2 2 6 10 12 12 12 12 11 11 12 12 12 12 10 10 10 9 8 8 7 7 7 6 5 5 5 6 6 6 5 5 5 5 3 3 3 3
6 6 5 6 5 2 3 4 5 6 5 2 3 6 7 10 12 12 12 12 11 11 10 10 10 10 9 9 9 9 8 7 7 6 7 6 6 6 7 7 6 6 5 5 4 3 3 3 3
1 2 5 5 6 7 4 7 7 8 6 5 6 6 8 9 11 12 11 12 11 10 10 10 10 9 9 9 8 8 7 7 7 7 7 7 6 7 8 8 7 7 6 5 5 4 4 4 3
4 5 7 6 3 5 5 7 5 5 5 4 4 6 7 8 9 10 11 11 10 11 11 12 11 10 10 9 8 8 7 7 7 7 7 7 8 8 8 8 7 7 7 6 6 6 5 5 5
Wind_Direction
198 210 196 54 49 42 261 243 203 195 147 95 99 105 101 89 135 153 136 135 136 142 146 142 139 136 134 132 130 128 125 122 120 118 116 114 114 114 113 112 111 109 106 104 102 101 100 97 95
198 201 137 50 76 327 263 218 193 182 155 121 92 92 88 79 93 109 123 137 137 141 142 142 141 138 136 135 134 133 130 128 126 123 121 119 118 118 117 115 113 110 109 107 105 103 100 96 93
220 196 121 93 197 216 244 207 181 170 156 127 99 67 86 117 116 124 141 139 135 139 141 146 142 140 139 138 137 136 134 132 131 128 126 125 123 121 118 118 115 113 112 109 108 106 102 97 92
159 71 61 100 252 250 238 215 169 139 114 101 106 79 55 117 131 139 141 140 137 139 141 146 143 142 141 140 140 139 137 136 133 132 131 130 128 125 123 122 120 117 114 111 108 107 103 96 88
97 88 42 287 264 265 244 194 171 146 118 106 105 100 41 39 121 135 143 142 139 139 142 146 144 144 143 143 143 142 141 139 137 136 135 134 132 129 128 127 125 122 120 118 114 109 102 94 82
44 76 77 269 269 276 235 152 134 120 120 117 109 113 103 122 133 144 144 142 141 141 141 145 147 146 146 146 146 146 145 144 143 141 139 138 136 134 134 133 132 129 127 126 124 117 106 90 71
147 140 237 259 281 282 213 137 133 132 132 140 133 116 128 146 149 147 143 139 139 141 141 143 148 148 149 149 149 149 149 150 149 147 145 144 144 143 142 142 141 139 138 138 137 132 117 88 53
171 115 288 283 287 287 212 119 133 129 131 136 135 140 167 171 151 142 139 138 139 143 146 146 145 145 147 151 153 153 153 154 152 151 152 152 153 152 153 152 152 152 153 153 150 145 136 42 342
160 95 266 259 258 275 281 99 88 98 121 130 145 162 162 151 145 141 138 137 141 147 151 150 149 147 147 151 159 155 156 158 157 157 159 156 150 153 158 165 166 165 166 169 172 178 208 299 322
150 190 241 235 241 269 324 103 135 112 108 105 105 115 134 146 149 151 152 154 155 158 161 160 157 155 155 160 151 152 155 157 155 159 161 154 159 173 172 179 175 172 173 178 190 216 248 310 329
194 216 249 264 267 268 334 358 137 131 162 175 161 153 150 153 156 158 160 161 162 162 163 163 163 162 163 150 151 154 150 155 163 170 169 159 157 163 151 155 165 162 163 132 111 59 57 11 312
242 256 260 264 266 280 271 181 141 169 192 169 156 155 156 157 162 165 162 162 160 160 165 165 165 163 164 151 157 159 158 168 175 173 161 149 146 144 142 141 137 125 115 121 97 86 86 76 82
265 270 282 278 280 259 245 172 144 154 139 142 146 153 163 164 160 159 155 154 153 157 161 162 155 161 161 154 162 163 166 175 174 162 156 148 144 144 139 133 124 126 126 125 104 89 87 94 90
281 299 301 289 282 285 198 229 117 170 143 147 152 158 166 164 158 155 154 155 155 158 159 160 154 161 161 158 157 159 162 164 158 147 144 139 137 139 132 122 111 102 109 113 104 91 85 72 67
312 322 313 288 271 259 101 328 193 165 151 153 157 158 157 158 154 156 159 156 152 152 154 155 156 160 159 155 155 155 155 153 147 141 137 134 131 131 126 118 109 104 97 92 76 61 63 65 61
333 326 296 282 251 241 125 244 232 159 157 161 161 157 151 145 152 150 152 152 144 144 152 158 159 157 155 149 144 147 149 149 143 140 136 131 127 127 118 115 110 100 90 88 85 65 65 57 59
326 279 276 288 251 183 152 231 218 165 160 161 159 154 152 144 145 151 157 161 156 155 158 160 158 156 153 148 143 141 143 144 141 136 132 128 125 125 120 118 112 99 86 80 88 71 85 71 42
267 279 285 282 267 158 174 233 179 163 153 154 155 154 160 162 167 164 164 165 162 162 165 161 157 154 150 143 130 125 129 136 138 136 137 131 128 125 117 114 107 102 93 79 76 73 62 88 70
258 275 278 280 275 126 162 183 182 163 153 152 159 160 165 168 169 163 165 167 164 166 166 162 160 160 155 149 145 143 148 148 144 146 144 138 134 129 122 117 113 108 108 112 102 87 61 36 47
265 272 280 300 360 84 95 88 133 144 179 171 165 164 164 162 162 171 176 180 174 173 171 169 165 164 163 159 154 149 143 147 150 145 146 147 140 138 137 128 130 124 112 95 80 82 82 28 51
271 256 256 254 65 49 78 12 335 327 41 149 171 168 168 169 168 172 179 181 176 174 170 170 169 165 164 155 136 126 109 104 112 143 155 161 150 143 138 140 135 132 125 122 109 99 102 78 15
274 264 236 226 75 9 43 303 297 305 314 208 190 179 177 175 170 173 177 182 185 183 173 166 167 165 167 158 153 153 156 160 175 171 167 166 156 151 147 144 139 135 132 133 132 112 110 108 60
253 258 301 77 101 65 22 69 293 326 287 256 203 191 188 179 175 176 178 180 184 181 170 164 161 165 167 166 161 159 157 160 154 152 155 162 163 160 154 148 141 138 138 140 129 115 109 114 122
246 15 36 49 67 48 316 103 280 250 244 264 240 205 191 182 179 176 173 166 174 174 168 165 167 172 171 169 167 166 164 161 155 162 165 169 167 168 164 155 149 149 147 148 146 136 127 126 122
296 79 19 356 18 262 257 198 256 257 254 245 226 210 187 180 175 172 169 171 174 173 172 172 174 177 178 175 174 174 173 168 171 172 174 170 169 180 185 165 160 159 163 162 152 142 145 145 136
251 156 167 204 217 235 267 245 261 269 275 263 213 194 178 178 180 178 178 180 181 181 179 177 180 182 182 181 182 181 175 171 175 178 174 179 183 188 182 174 173 172 169 165 156 150 164 153 153
227 218 177 143 132 129 256 275 292 285 287 291 180 173 181 182 184 181 181 182 183 185 186 183 182 183 186 186 182 183 181 177 178 179 177 180 187 188 179 175 176 176 172 166 158 161 178 169 173
190 178 108 121 148 192 248 251 247 264 257 242 201 184 186 186 183 180 181 185 186 185 184 181 182 187 188 187 189 190 189 185 179 174 179 182 184 180 170 174 175 176 174 169 162 167 179 175 190
252 113 123 127 147 152 204 254 227 222 223 220 213 195 188 186 185 181 182 184 183 178 177 180 183 186 185 184 188 187 186 186 177 177 182 182 181 176 176 178 177 178 178 174 171 185 182 188 207
175 168 144 147 183 154 166 254 279 205 215 210 206 192 188 183 183 181 178 177 179 180 182 185 186 188 190 188 185 187 181 180 180 185 187 179 177 180 179 176 179 185 186 182 182 195 195 195 207